Location: Unspecified
(0.0000°N, 0.0000°E)
Time: 12:29:21
(UTC+00:00)

Vanguard 2 Rocket - Pass Details

Date: 15 December 2018
Orbit: 556 x 3325 km, 32.9° (Epoch: 25 March)

Event Time Altitude Azimuth Distance (km) Brightness Sun altitude
Rises 20:25:06 0° 231° (SW) 7,298 12.5 -34.0°
Reaches altitude 10° 20:33:24 10° 214° (SSW) 6,246 11.8 -35.8°
Maximum altitude 20:44:35 17° 178° (S) 5,240 10.9 -38.2°
Drops below altitude 10° 20:54:02 10° 142° (SE) 5,212 10.7 -40.2°
Enters shadow 20:58:21 - 128° (SE) 5,542 10.7 -41.1°
Sets 20:59:47 0° 123° (ESE) 5,699 - -41.5°
